User: anonymous   Login
Location: Laverne
(36.7100°N, 99.8930°W)
Time: 18:16:26
(UTC-06:00)
Language:

Iridium 32 - Orbit

View from above orbital plane
View from above orbital plane
View from above satellite
View from above satellite

Ground track
Ground track

The orbit data is extracted from the following two-line orbital elements,

1 24945U 97051B   17055.26526593  .00000215  00000-0  69863-4 0  9996
2 24945  86.3997 334.3193 0002212  83.9970 276.1478 14.34218842 18233
Epoch (UTC): 24 February 2017 06:21:58
Eccentricity: 0.0002212
inclination: 86.3997°
perigee height: 776 km
apogee height: 779 km
right ascension of ascending node: 334.3193°
argument of perigee: 83.9970°
revolutions per day: 14.34218842
mean anomaly at epoch: 276.1478°
orbit number at epoch: 1823

The dashed part of the orbit path shows where the satellite is in the earth's shadow,  

DLR